Terminal Aerodrome Forecast
Issued by NWS Charleston, WV

Current Version | Previous Version | Graphics & Text | Print | Product List | Glossary On
Versions: 1 2 3 4 5 6 7 8 9 10 11 12 13 14 15 16 17 18 19 20 21 22 23 24 25 26 27 28
000
FTUS41 KRLX 221700
TAFCRW
TAF
KCRW 221736Z 2218/2318 30005KT P6SM BKN025
     FM222000 30005KT P6SM SCT035
     FM230700 00000KT 5SM BR FEW035
     FM230900 00000KT 1/4SM FG VV001
     FM231300 00000KT 4SM BR FEW002
     FM231400 00000KT P6SM SKC=

USA.gov is the U.S. government's official web portal to all federal, state and local government web resources and services.